Other Public Products
Issued by NWS Charleston, SC

Current Version | Previous Version | Text Only | Print | Product List | Glossary Off
Versions: 1 2 3 4 5 6 7 8 9 10 11 12 13 14 15 16 17 18 19 20 21 22 23 24 25 26 27 28 29 30 31 32 33 34 35 36 37 38 39 40 41 42 43 44 45 46 47 48 49 50

920
FPUS82 KCHS 180012
OPUCHS

TEST...KCHS/KSAV Gateway Observations...TEST
National Weather Service Charleston SC
700 PM EST SAT FEB 17 2018

NOTE: "fair" indicates few or no clouds below 12,000 feet with no
significant weather and/or obstructions to visibility.

SCZ050-WAZ558-NCZ071-TXZ119-213-PAZ071-DCZ001-FLZ074-172-MI076-
NYZ176-178-MAZ016-IL014-TNZ027-NJZ106-GAZ044-MD014-180100-

...Gateway Observations for Charleston International...

CITY           SKY/WX    TMP DP  RH WIND       PRES   REMARKS
Chas Airport   FAIR      61  58  90 SE12      30.10S
6HR MIN TEMP:  61; 6HR MAX TEMP:  71;

Seattle        PTSUNNY   45  35  68 SW17G32   29.62R
6HR MIN TEMP:  45; 6HR MAX TEMP:  49; 6HR PCP:  0.03;

Charlotte      MOCLDY    50  49  96 NW3       30.08S
6HR MIN TEMP:  48; 6HR MAX TEMP:  52; 6HR PCP:  0.02;

Dallas DFW     CLOUDY    61  45  55 NE9       30.14R
6HR MIN TEMP:  54; 6HR MAX TEMP:  67;

Dallas Love    CLOUDY    60  46  59 NE7       30.15R
6HR MIN TEMP:  51; 6HR MAX TEMP:  65;

Philladelphia  LGT SNOW  33  32  96 NE3       30.16F FOG
6HR MIN TEMP:  33; 6HR MAX TEMP:  42; 6HR PCP:  0.05;

Wash National  LGT RAIN  35  33  92 S8        30.16F WCI  29
6HR MIN TEMP:  34; 6HR MAX TEMP:  43; 6HR PCP:  0.41;

Baltimore      LGTSLEET  32  32 100 SE3       30.15S FOG
6HR MIN TEMP:  32; 6HR MAX TEMP:  40; 6HR PCP:  0.51;

Miami          MOCLDY    77  69  76 SE9       30.20R
6HR MIN TEMP:  77; 6HR MAX TEMP:  84;

Detroit        CLOUDY    32  25  75 S8        29.99F WCI  25
6HR MIN TEMP:  31; 6HR MAX TEMP:  34;

Newark         LGT SNOW  33  29  85 NE5       30.20F VSB 3/4 WCI  29
6HR MIN TEMP:  33; 6HR MAX TEMP:  37; 6HR PCP:  0.06;

Laguardia      SNOW      33  30  88 NE6       30.20F VSB 1/2 WCI  28
6HR MIN TEMP:  33; 6HR MAX TEMP:  39; 6HR PCP:  0.08;

J F K          LGT SNOW  33  32  96 N9        30.20F VSB 3/4 WCI  25
6HR MIN TEMP:  33; 6HR MAX TEMP:  37; 6HR PCP: TRACE;

Boston Logan   CLOUDY    34  24  67 S16       30.27F WCI  24
6HR MIN TEMP:  31; 6HR MAX TEMP:  35;

Ft. Lauderdale FAIR      76  69  79 SE10      30.19R
6HR MIN TEMP:  76; 6HR MAX TEMP:  81;

Chicago O`Hare LGT SNOW  32  30  92 SW6       29.96R FOG     WCI  26
6HR MIN TEMP:  32; 6HR MAX TEMP:  35; 6HR PCP:  0.11;

Chicago Midway LGT SNOW  33  31  92 SW10      29.96R FOG     WCI  25
6HR MIN TEMP:  33; 6HR MAX TEMP:  36; 6HR PCP:  0.09;

Houston Bush   CLOUDY    64  55  72 N16       30.11R
6HR MIN TEMP:  64; 6HR MAX TEMP:  77;

Houston Hobby  MOCLDY    77  66  68 SW7       30.07R
6HR MIN TEMP:  73; 6HR MAX TEMP:  80; 6HR PCP:  0.01;

Nashville      CLOUDY    48  45  89 W10       30.13R
6HR MIN TEMP:  42; 6HR MAX TEMP:  48; 6HR PCP:  0.26;

Atlanta        MOCLDY    71  55  56 SW9       30.07R
6HR MIN TEMP:  69; 6HR MAX TEMP:  77;


$$

GAZ044-118-TXZ119-213-NCZ071-DCZ001-MDZ014-506-PAZ021-071-NJZ106-
NYZ176-178-MAZ106-OHZ011-021-055-MIZ076-KYZ091-ILZ014-INZ047-
MNZ060-ONZ431-180100-

...Gateway Observations for Savannah International...

CITY           SKY/WX    TMP DP  RH WIND       PRES   REMARKS
Savannah Arpt  FAIR      66  61  84 S9        30.11R
6HR MIN TEMP:  66; 6HR MAX TEMP:  80;

Atlanta        MOCLDY    71  55  56 SW9       30.07R
6HR MIN TEMP:  69; 6HR MAX TEMP:  77;

Charlotte      MOCLDY    50  49  96 NW3       30.08S
6HR MIN TEMP:  48; 6HR MAX TEMP:  52; 6HR PCP:  0.02;

Dallas DFW     CLOUDY    61  45  55 NE9       30.14R
6HR MIN TEMP:  54; 6HR MAX TEMP:  67;

Houston Bush   CLOUDY    64  55  72 N16       30.11R
6HR MIN TEMP:  64; 6HR MAX TEMP:  77;

Wash National  LGT RAIN  35  33  92 S8        30.16F WCI  29
6HR MIN TEMP:  34; 6HR MAX TEMP:  43; 6HR PCP:  0.41;

Wash Dulles    LGT RAIN  33  32  96 S6        30.15S FOG     WCI  28
6HR MIN TEMP:  32; 6HR MAX TEMP:  40; 6HR PCP:  0.44;

Baltimore      LGTSLEET  32  32 100 SE3       30.15S FOG
6HR MIN TEMP:  32; 6HR MAX TEMP:  40; 6HR PCP:  0.51;

Philadelphia   LGT SNOW  33  32  96 NE3       30.16F FOG
6HR MIN TEMP:  33; 6HR MAX TEMP:  42; 6HR PCP:  0.05;

Newark         LGT SNOW  33  29  85 NE5       30.20F VSB 3/4 WCI  29
6HR MIN TEMP:  33; 6HR MAX TEMP:  37; 6HR PCP:  0.06;

Laguardia      SNOW      33  30  88 NE6       30.20F VSB 1/2 WCI  28
6HR MIN TEMP:  33; 6HR MAX TEMP:  39; 6HR PCP:  0.08;

J F K          LGT SNOW  33  32  96 N9        30.20F VSB 3/4 WCI  25
6HR MIN TEMP:  33; 6HR MAX TEMP:  37; 6HR PCP: TRACE;

Boston         CLOUDY    34  24  67 S16       30.27F WCI  24
6HR MIN TEMP:  31; 6HR MAX TEMP:  35;

Pittsburg      LGT SNOW  32  32 100 CALM      29.98R VSB 1
6HR MIN TEMP:  30; 6HR MAX TEMP:  33; 6HR PCP:  0.20;

Akron          LGT SNOW  32  28  85 SW3       29.99S FOG
6HR MIN TEMP:  32; 6HR MAX TEMP:  34; 6HR PCP:  0.01;

Cleveland      FLURRIES  32  27  81 S5        30.03R WCI  27
6HR MIN TEMP:  32; 6HR MAX TEMP:  34; 6HR PCP: TRACE;

Cincinnati     LGT RAIN  34  34 100 SW6       30.05R VSB 1/2 WCI  29
6HR MIN TEMP:  33; 6HR MAX TEMP:  34; 6HR PCP:  0.15;

Columbus       LGT SNOW  32  32 100 S5        30.03R WCI  27
Detroit        CLOUDY    32  25  75 S8        29.99F WCI  25
6HR MIN TEMP:  31; 6HR MAX TEMP:  34;

Chicago O`Hare LGT SNOW  32  30  92 SW6       29.96R FOG     WCI  26
6HR MIN TEMP:  32; 6HR MAX TEMP:  35; 6HR PCP:  0.11;

Minneapolis    FAIR      31  14  49 NW15      29.96R WCI  20
6HR MIN TEMP:  31; 6HR MAX TEMP:  38;

Indianapolis   LGT SNOW  33  32  96 S10       30.03R FOG     WCI  25
6HR MIN TEMP:  33; 6HR MAX TEMP:  35; 6HR PCP:  0.05;

Toronto Canada CLOUDY    28  18  64 SW9       30.00F WCI  20

$$




USA.gov is the U.S. government's official web portal to all federal, state and local government web resources and services.